Main page
METAR-TAF:

METAR-TAF

Airports :

Paros National Airport

Paros, Greece

latitude: 37-01-15N, longitude: 025-06-46E, elevation: 38 m

Current weather observation

The report was made 18 minutes ago, at 03:50 UTC
Wind 6 kt from the Southeast
Temperature 18°C
Humidity 94%
Pressure 1008 hPa

METAR: LGPA 030350Z AUTO 13006KT //// // ////// 18/17 Q1008 RE//

Time: 07:08 (04:08 UTC)


TAF: missing

Weather observations and forecasts of more than 4000 airports (METAR and TAF reports).

The available stations are represented by yellow and red dots on the map.

Hover mouse over dot to see the name of the station.

Then click to see weather observations and forecasts.

To change the map : click on the green buttons with a black cross to zoom in, on the green button with a dash to zoom out, or on the green arrows for adjacent maps.


METAR-TAF: